Location,LocationNum,Date,Time,C 0.3-0.5um,C 0.5-0.7um,C 0.7-1.0um,C 1.0-2.0um,C 2.0-5.0um,C >5.0um,Temperature,Humidity,Flags,Liters
Label 1   ,1,03/10/04,08:47:12,23920,1239,352,323,264,34,20,52,0,2.832
Label 1   ,2,03/10/04,08:49:12,25224,1422,385,343,276,30,20,50,0,2.832
Label 1   ,3,03/10/04,08:51:12,25024,1354,362,325,221,13,20,49,0,2.832
Label 1   ,4,03/10/04,08:53:12,27415,1520,404,368,234,8.1,21,48,0,2.832
Label 1   ,5,03/10/04,08:55:12,29276,1710,441,388,268,9.5,22,47,0,2.832
Label 1   ,6,03/10/04,08:57:12,29322,1640,423,381,257,7.1,19,46,0,2.832
Label 1   ,7,03/10/04,08:59:13,28460,1697,445,380,228,8.1,22,44,0,2.832
Label 1   ,8,03/10/04,09:01:13,29122,1842,484,404,255,7.4,20,45,0,2.832
Label 1   ,9,03/10/04,09:03:13,29017,1878,497,398,298,8.5,24,43,0,2.832
Label 1   ,10,03/10/04,09:05:13,28226,1671,445,405,253,6.7,24,42,0,2.832
Label 1   ,11,03/10/04,09:07:13,27778,1571,433,400,242,6.7,23,42,0,2.832
Label 1   ,12,03/10/04,09:09:13,27555,1572,451,395,259,4.9,24,40,0,2.832
Label 1   ,13,03/10/04,09:11:13,26336,1478,421,381,249,8.1,25,40,0,2.832
Label 1   ,14,03/10/04,09:13:13,25243,1452,409,352,244,6.0,22,41,0,2.832
Label 1   ,15,03/10/04,09:15:13,25599,1489,414,381,251,4.6,24,39,0,2.832
Label 1   ,16,03/10/04,09:17:14,27271,1606,424,367,244,4.6,23,39,0,2.832
Label 1   ,17,03/10/04,09:19:14,27037,1597,442,357,248,2.8,23,39,0,2.832
Label 1   ,18,03/10/04,09:21:14,28233,1732,458,391,255,0.7,23,39,0,2.832
Label 1   ,19,03/10/04,09:23:14,27659,1692,454,387,250,4.6,26,38,0,2.832
Label 1   ,20,03/10/04,09:25:14,26779,1648,417,382,248,2.1,24,37,0,2.832
Label 1   ,21,03/10/04,09:27:14,27521,1677,458,404,241,8.1,23,37,0,2.832
Label 1   ,22,03/10/04,09:29:14,26650,1540,433,398,273,6.4,23,38,0,2.832
Label 1   ,23,03/10/04,09:31:14,26280,1651,442,377,229,3.2,23,37,0,2.832
Label 1   ,24,03/10/04,09:33:14,24061,1453,406,360,238,1.4,20,37,0,2.832
Label 1   ,25,03/10/04,09:35:15,24145,1482,402,380,242,3.9,23,37,0,2.832
Label 1   ,26,03/10/04,09:37:15,24098,1421,421,389,238,4.9,23,36,0,2.832
Label 1   ,27,03/10/04,09:39:15,25713,1654,456,387,252,3.2,23,36,0,2.832
Label 1   ,28,03/10/04,09:41:15,25805,1803,495,427,240,2.5,22,36,0,2.832
Label 1   ,29,03/10/04,09:43:15,24296,1542,459,402,263,4.9,24,36,0,2.832
Label 1   ,30,03/10/04,09:45:15,22244,1365,395,358,221,4.6,22,36,0,2.832
Label 1   ,31,03/10/04,09:47:15,22500,1380,393,369,248,1.4,23,36,0,2.832
Label 1   ,32,03/10/04,09:49:15,22982,1436,380,376,258,4.9,22,36,0,2.832
Label 1   ,33,03/10/04,09:51:16,23564,1597,442,406,237,7.1,23,36,0,2.832
Label 1   ,34,03/10/04,09:53:16,36561,3297,917,656,257,4.2,23,34,0,2.832
Label 1   ,35,03/10/04,09:55:16,26194,1776,515,426,226,3.5,24,35,0,2.832
Label 1   ,36,03/10/04,09:57:16,27513,1985,555,447,204,2.5,25,33,0,2.832
Label 1   ,37,03/10/04,09:59:16,32057,2652,714,538,228,2.5,26,34,0,2.832
Label 1   ,38,03/10/04,10:01:16,29279,2316,654,524,232,2.8,25,34,0,2.832
Label 1   ,39,03/10/04,10:03:16,27835,2252,613,485,221,1.4,25,33,0,2.832
Label 1   ,40,03/10/04,10:05:16,28463,2095,569,477,226,2.8,25,34,0,2.832
Label 1   ,41,03/10/04,10:07:16,22691,1390,379,349,220,2.1,25,33,0,2.832
Label 1   ,42,03/10/04,10:09:16,27103,1913,519,426,224,2.8,26,34,0,2.832
Label 1   ,43,03/10/04,10:11:17,38953,4127,1125,742,278,2.8,26,34,0,2.832
Label 1   ,44,03/10/04,10:13:17,23424,1613,492,426,234,3.2,27,34,0,2.832
Label 1   ,45,03/10/04,10:15:17,21620,1262,369,373,250,6.4,26,33,0,2.832
Label 1   ,46,03/10/04,10:17:17,21317,1248,341,327,231,1.8,27,33,0,2.832
Label 1   ,47,03/10/04,10:19:17,22346,1361,364,390,269,8.1,26,33,0,2.832
Label 1   ,48,03/10/04,10:21:17,21932,1338,393,387,271,14,26,30,0,2.832
Label 1   ,49,03/10/04,10:23:17,22493,1330,389,357,216,5.3,26,32,0,2.832
Label 1   ,50,03/10/04,10:25:17,22957,1421,414,380,251,2.8,26,31,0,2.832
Label 1   ,51,03/10/04,10:27:17,23238,1386,398,375,211,1.8,27,32,0,2.832
Label 1   ,52,03/10/04,10:29:18,23905,1668,487,453,239,3.2,26,32,0,2.832
Label 1   ,53,03/10/04,10:31:18,24239,1636,484,422,257,6.0,26,32,0,2.832
Label 1   ,54,03/10/04,10:33:18,31177,2551,684,525,236,2.8,28,32,0,2.832
Label 1   ,55,03/10/04,10:35:18,26347,1691,469,443,281,9.2,27,30,0,2.832
Label 1   ,56,03/10/04,10:37:18,26722,1801,528,435,241,3.5,27,32,0,2.832
Label 1   ,57,03/10/04,10:39:18,24373,1483,436,420,298,13,27,31,0,2.832
Label 1   ,58,03/10/04,10:41:18,24276,1589,458,413,233,2.1,26,30,0,2.832
Label 1   ,59,03/10/04,10:43:18,22685,1455,415,430,378,26,26,30,0,2.832
Label 1   ,60,03/10/04,10:45:18,22010,1258,356,355,178,1.1,26,30,0,2.832
Label 1   ,61,03/10/04,10:47:19,22920,1350,383,383,220,4.6,27,30,0,2.832
Label 1   ,62,03/10/04,10:49:19,23059,1409,393,380,301,16,26,31,0,2.832
Label 1   ,63,03/10/04,10:51:19,24625,1574,450,389,236,3.9,27,31,0,2.832
Label 1   ,64,03/10/04,10:53:19,22809,1437,424,381,210,5.3,26,30,0,2.832
Label 1   ,65,03/10/04,10:55:19,21062,1262,354,342,223,3.2,27,30,0,2.832
Label 1   ,66,03/10/04,10:57:19,20405,1216,336,325,188,3.2,27,30,0,2.832
Label 1   ,67,03/10/04,10:59:19,22095,1431,412,374,224,3.5,28,31,0,2.832
Label 1   ,68,03/10/04,11:01:19,21865,1327,398,356,183,1.1,27,30,0,2.832
Label 1   ,69,03/10/04,11:03:19,21405,1310,386,380,182,0.7,27,30,0,2.832
Label 1   ,70,03/10/04,11:05:20,22992,1546,448,446,222,1.1,27,30,0,2.832
Label 1   ,71,03/10/04,11:07:20,23397,1519,438,410,226,3.5,28,30,0,2.832
Label 1   ,72,03/10/04,11:09:20,19379,1147,309,303,166,2.1,27,29,0,2.832
Label 1   ,73,03/10/04,11:11:20,19478,1160,339,317,168,3.2,28,29,0,2.832
Label 1   ,74,03/10/04,11:13:20,23210,1627,460,415,216,3.2,28,29,0,2.832
Label 1   ,75,03/10/04,11:15:20,21942,1388,410,381,205,10,29,29,0,2.832
Label 1   ,76,03/10/04,11:17:20,20342,1234,392,369,200,2.1,28,29,0,2.832
Label 1   ,77,03/10/04,11:19:20,19513,1174,343,320,173,2.1,28,29,0,2.832
Label 1   ,78,03/10/04,11:21:21,20248,1252,374,362,188,3.2,28,29,0,2.832
Label 1   ,79,03/10/04,11:23:21,21247,1311,384,388,293,30,28,29,0,2.832
Label 1   ,80,03/10/04,11:25:21,20193,1232,355,336,232,7.8,28,29,0,2.832
Label 1   ,81,03/10/04,11:27:21,21589,1306,379,349,205,2.1,28,29,0,2.832
Label 1   ,82,03/10/04,11:29:21,23740,2197,698,520,184,1.8,28,29,0,2.832
Label 1   ,83,03/10/04,11:31:21,21010,1264,379,361,184,1.4,28,29,0,2.832
Label 1   ,84,03/10/04,11:33:21,59244,9056,2500,1471,222,0.7,28,28,0,2.832
Label 1   ,85,03/10/04,11:35:21,21766,1356,365,348,214,6.7,28,29,0,2.832
Label 1   ,86,03/10/04,11:37:21,21098,1312,368,329,174,0.7,28,29,0,2.832
Label 1   ,87,03/10/04,11:39:22,22792,1470,403,406,204,0.7,28,29,0,2.832
Label 1   ,88,03/10/04,11:41:22,21125,1337,402,353,197,2.8,28,29,0,2.832
Label 1   ,89,03/10/04,11:43:22,21436,1353,399,412,459,49,29,29,0,2.832
Label 1   ,90,03/10/04,11:45:22,20422,1245,356,341,182,0.4,28,29,0,2.832
Label 1   ,91,03/10/04,11:47:22,20715,1293,394,368,217,3.9,28,28,0,2.832
Label 1   ,92,03/10/04,11:49:22,20682,1240,341,333,185,2.5,28,29,0,2.832
Label 1   ,93,03/10/04,11:51:22,21676,1276,333,313,189,3.2,27,27,0,2.832
Label 1   ,94,03/10/04,11:53:22,20606,1230,366,334,198,2.1,28,29,0,2.832
Label 1   ,95,03/10/04,11:55:22,21569,1338,403,390,207,2.1,28,29,0,2.832
Label 1   ,96,03/10/04,11:57:22,21841,1366,418,385,221,4.2,28,29,0,2.832
Label 1   ,97,03/10/04,11:59:23,20658,1222,375,349,227,7.8,29,29,0,2.832
Label 1   ,98,03/10/04,12:01:23,21801,1439,439,432,254,2.1,27,28,0,2.832
Label 1   ,99,03/10/04,12:03:23,19851,1068,312,294,155,1.4,28,29,0,2.832
Label 1   ,100,03/10/04,12:05:23,20979,1294,388,397,242,5.3,28,29,0,2.832
Label 1   ,101,03/10/04,12:07:23,20431,1089,313,320,158,1.4,29,29,0,2.832
Label 1   ,102,03/10/04,12:09:23,20971,1250,344,339,179,1.1,27,27,0,2.832
Label 1   ,103,03/10/04,12:11:23,24054,1616,498,463,239,0.7,28,29,0,2.832
Label 1   ,104,03/10/04,12:13:23,24751,1599,461,452,228,2.8,29,29,0,2.832
Label 1   ,105,03/10/04,12:15:23,23411,1467,437,402,247,3.5,28,29,0,2.832
Label 1   ,106,03/10/04,12:17:24,27740,1971,575,494,230,1.8,28,29,0,2.832
Label 1   ,107,03/10/04,12:19:24,25217,1731,519,448,263,8.1,28,29,0,2.832
Label 1   ,108,03/10/04,12:21:24,25374,1787,534,460,218,1.8,28,29,0,2.832
Label 1   ,109,03/10/04,12:23:24,24500,1562,401,347,151,1.1,28,29,0,2.832
Label 1   ,110,03/10/04,12:25:24,23109,1450,359,350,179,1.8,28,28,0,2.832
Label 1   ,111,03/10/04,12:27:24,22152,1353,372,364,202,4.6,28,29,0,2.832
Label 1   ,112,03/10/04,12:29:24,24152,1570,450,411,192,1.4,28,29,0,2.832
Label 1   ,113,03/10/04,12:31:24,23833,1682,492,446,221,2.8,29,29,0,2.832
Label 1   ,114,03/10/04,12:33:24,21575,1326,375,335,161,0.7,28,29,0,2.832
Label 1   ,115,03/10/04,12:35:25,22396,1404,384,388,227,3.9,28,29,0,2.832
Label 1   ,116,03/10/04,12:37:25,21906,1377,405,362,192,1.8,29,29,0,2.832
Label 1   ,117,03/10/04,12:39:25,24029,1764,509,486,246,1.4,28,28,0,2.832
Label 1   ,118,03/10/04,12:41:25,22179,1388,394,372,194,1.8,29,29,0,2.832
Label 1   ,119,03/10/04,12:43:25,21852,1412,380,357,199,2.1,28,29,0,2.832
Label 1   ,120,03/10/04,12:45:25,24255,1774,499,459,248,3.2,29,29,0,2.832
Label 1   ,121,03/10/04,12:47:25,22706,1503,421,361,154,0.4,28,29,0,2.832
Label 1   ,122,03/10/04,12:49:25,24387,1757,522,477,227,1.4,28,29,0,2.832
Label 1   ,123,03/10/04,12:51:26,22593,1490,400,408,251,5.3,27,28,0,2.832
Label 1   ,124,03/10/04,12:53:26,23165,1472,414,407,222,6.0,28,29,0,2.832
Label 1   ,125,03/10/04,12:55:26,22280,1456,389,382,220,3.5,27,27,0,2.832
Label 1   ,126,03/10/04,12:57:26,21099,1335,349,341,167,1.4,28,28,0,2.832
Label 1   ,127,03/10/04,12:59:26,21272,1347,359,350,197,3.9,26,27,0,2.832
Label 1   ,128,03/10/04,13:01:26,22572,1524,427,400,209,1.8,29,29,0,2.832
Label 1   ,129,03/10/04,13:03:26,21393,1359,367,324,163,1.1,28,27,0,2.832
Label 1   ,130,03/10/04,13:05:26,23790,1883,557,506,256,1.4,28,29,0,2.832
Label 1   ,131,03/10/04,13:07:26,21274,1286,360,336,188,1.8,28,28,0,2.832
Label 1   ,132,03/10/04,13:09:27,21342,1315,356,340,207,2.8,28,28,0,2.832
Label 1   ,133,03/10/04,13:11:27,20503,1302,338,285,169,0.7,28,29,0,2.832
Label 1   ,134,03/10/04,13:13:27,21727,1344,371,361,237,6.0,28,29,0,2.832
Label 1   ,135,03/10/04,13:15:27,21871,1349,336,329,172,1.1,27,27,0,2.832
Label 1   ,136,03/10/04,13:17:27,21741,1362,381,331,190,2.1,27,28,0,2.832
Label 1   ,137,03/10/04,13:19:27,20938,1277,364,329,198,1.1,28,29,0,2.832
Label 1   ,138,03/10/04,13:21:27,23304,1517,400,389,160,0.7,28,29,0,2.832
Label 1   ,139,03/10/04,13:23:27,21205,1312,354,335,179,2.5,28,29,0,2.832
Label 1   ,140,03/10/04,13:25:27,21983,1272,345,315,162,1.8,28,29,0,2.832
Label 1   ,141,03/10/04,13:27:28,22772,1413,397,333,160,0.4,27,28,0,2.832
Label 1   ,142,03/10/04,13:29:28,22445,1349,370,317,150,0.4,28,29,0,2.832
Label 1   ,143,03/10/04,13:31:28,24786,1576,453,369,173,0.7,28,29,0,2.832
Label 1   ,144,03/10/04,13:33:28,23535,1452,426,390,192,0.7,27,29,0,2.832
Label 1   ,145,03/10/04,13:35:28,23024,1403,384,390,225,2.5,27,28,0,2.832
Label 1   ,146,03/10/04,13:37:28,23878,1505,429,341,159,0.4,28,28,0,2.832
Label 1   ,147,03/10/04,13:39:28,22851,1408,353,325,154,0.0,28,29,0,2.832
Label 1   ,148,03/10/04,13:41:28,23254,1476,389,376,183,1.8,28,29,0,2.832
Label 1   ,149,03/10/04,13:43:28,23103,1435,372,339,179,1.1,27,29,0,2.832
Label 1   ,150,03/10/04,13:45:29,25261,1629,452,381,174,0.0,27,29,0,2.832
Label 1   ,151,03/10/04,13:47:29,25184,1527,392,327,144,0.4,28,28,0,2.832
Label 1   ,152,03/10/04,13:49:29,25240,1669,451,416,209,3.2,28,29,0,2.832
Label 1   ,153,03/10/04,13:51:29,26143,1660,450,382,180,1.8,28,29,0,2.832
Label 1   ,154,03/10/04,13:53:29,28341,1866,501,415,230,2.5,28,29,0,2.832
Label 1   ,155,03/10/04,13:55:29,39945,3314,879,650,247,1.1,28,29,0,2.832
Label 1   ,156,03/10/04,13:57:29,27963,1879,503,394,194,2.1,26,30,0,2.832
Label 1   ,157,03/10/04,13:59:29,27021,1821,498,412,225,2.8,25,30,0,2.832
Label 1   ,158,03/10/04,14:01:29,27930,1868,466,413,222,1.8,24,31,0,2.832
Label 1   ,159,03/10/04,14:03:30,30329,2086,564,441,281,12,23,31,0,2.832
Label 1   ,160,03/10/04,14:05:30,30784,2188,541,469,320,22,23,32,0,2.832
Label 1   ,161,03/10/04,14:07:30,30014,2057,537,445,212,1.8,23,31,0,2.832
Label 1   ,162,03/10/04,14:09:30,29484,1984,520,441,234,1.8,24,32,0,2.832
Label 1   ,163,03/10/04,14:11:30,29511,1902,508,420,246,8.5,23,32,0,2.832
Label 1   ,164,03/10/04,14:13:30,31394,2184,602,487,272,4.6,22,34,0,2.832
Label 1   ,165,03/10/04,14:15:30,30450,2124,571,465,200,1.8,23,34,0,2.832
Label 1   ,166,03/10/04,14:17:30,30900,2156,607,509,290,6.0,22,34,0,2.832
Label 1   ,167,03/10/04,14:19:30,32811,2410,689,558,264,2.1,22,36,0,2.832
Label 1   ,168,03/10/04,14:21:31,31471,2145,564,447,232,3.2,22,36,0,2.832
Label 1   ,169,03/10/04,14:23:31,33517,2580,733,633,298,3.9,21,38,0,2.832
Label 1   ,170,03/10/04,14:25:31,32842,2395,707,616,336,7.4,21,39,0,2.832
Label 1   ,171,03/10/04,14:27:31,32518,2670,826,722,340,6.7,22,39,0,2.832
Label 1   ,172,03/10/04,14:29:31,30842,2245,620,541,246,1.8,22,41,0,2.832
Label 1   ,173,03/10/04,14:31:31,29308,1972,555,479,225,2.5,22,42,0,2.832
Label 1   ,174,03/10/04,14:33:31,30969,2376,725,597,277,2.1,22,43,0,2.832
Label 1   ,175,03/10/04,14:35:31,28389,1903,506,415,211,4.2,22,44,0,2.832
Label 1   ,176,03/10/04,14:37:31,28895,1947,520,414,181,0.4,22,44,0,2.832
Label 1   ,177,03/10/04,14:39:31,29888,2038,548,448,210,0.7,22,45,0,2.832
Label 1   ,178,03/10/04,14:41:32,29374,1973,541,457,257,3.5,22,47,0,2.832
Label 1   ,179,03/10/04,14:43:32,28801,1970,528,440,250,2.8,21,47,0,2.832
Label 1   ,180,03/10/04,14:45:32,29538,2038,542,470,230,3.5,22,48,0,2.832
Label 1   ,181,03/10/04,14:47:32,29486,1971,536,446,218,1.8,22,48,0,2.832
Label 1   ,182,03/10/04,14:49:32,30864,2256,611,523,258,4.2,21,50,0,2.832
Label 1   ,183,03/10/04,14:51:32,29524,2049,569,473,233,2.5,21,49,0,2.832
Label 1   ,184,03/10/04,14:53:32,28872,1979,545,428,215,4.6,21,50,0,2.832
Label 1   ,185,03/10/04,14:55:32,28074,2000,531,441,216,2.1,21,50,0,2.832
Label 1   ,186,03/10/04,14:57:32,28651,1985,533,471,249,2.1,21,51,0,2.832
Label 1   ,187,03/10/04,14:59:33,29631,2341,690,588,263,4.6,21,51,0,2.832
Label 1   ,188,03/10/04,15:01:33,27737,1932,557,446,213,2.5,22,51,0,2.832
Label 1   ,189,03/10/04,15:03:33,27358,2053,583,491,218,4.6,22,51,0,2.832
Label 1   ,190,03/10/04,15:05:33,27574,2105,625,494,230,1.8,23,50,0,2.832
Label 1   ,191,03/10/04,15:07:33,25398,1816,493,426,225,3.5,23,50,0,2.832
Label 1   ,192,03/10/04,15:09:33,24921,1729,461,412,182,0.7,23,49,0,2.832
Label 1   ,193,03/10/04,15:11:33,24984,1779,501,407,200,2.1,24,48,0,2.832
Label 1   ,194,03/10/04,15:13:33,21987,1589,448,391,198,2.1,24,47,0,2.832
Label 1   ,195,03/10/04,15:15:33,21008,1671,507,446,207,1.8,24,47,0,2.832
Label 1   ,196,03/10/04,15:17:34,20036,1473,418,403,196,1.1,23,47,0,2.832
Label 1   ,197,03/10/04,15:19:34,20216,1506,429,394,223,2.1,22,48,0,2.832
Label 1   ,198,03/10/04,15:21:34,17508,1254,399,360,217,3.2,22,47,0,2.832
Label 1   ,199,03/10/04,15:23:34,17560,1305,386,356,185,1.1,22,47,0,2.832
Label 1   ,200,03/10/04,15:25:34,17532,1342,399,405,195,2.8,22,47,0,2.832
Label 1   ,201,03/10/04,15:27:34,15652,1238,407,407,226,7.1,22,47,0,2.832
Label 1   ,202,03/10/04,15:29:34,15395,1238,413,415,221,2.1,21,48,0,2.832
Label 1   ,203,03/10/04,15:31:34,15048,1175,379,362,203,3.9,22,48,0,2.832
Label 1   ,204,03/10/04,15:33:34,21029,2221,733,648,309,5.7,21,49,0,2.832
Label 1   ,205,03/10/04,15:35:35,14657,1176,390,364,211,4.9,21,49,0,2.832
Label 1   ,206,03/10/04,15:37:35,14535,1077,356,355,200,3.5,21,49,0,2.832
Label 1   ,207,03/10/04,15:39:35,14704,1138,347,347,197,1.8,21,49,0,2.832
Label 1   ,208,03/10/04,15:41:35,14184,1103,351,352,214,1.4,21,50,0,2.832
Label 1   ,209,03/10/04,15:43:35,14632,1119,351,336,207,2.5,21,50,0,2.832
Label 1   ,210,03/10/04,15:45:35,13533,1021,337,366,205,2.8,21,50,0,2.832
Label 1   ,211,03/10/04,15:47:35,14244,1147,362,371,207,2.1,20,51,0,2.832
Label 1   ,212,03/10/04,15:49:35,14431,1139,360,342,212,4.2,21,51,0,2.832
Label 1   ,213,03/10/04,15:51:35,13968,1133,360,376,231,8.5,20,52,0,2.832
Label 1   ,214,03/10/04,15:53:36,15273,1135,376,412,313,18,21,53,0,2.832
Label 1   ,215,03/10/04,15:55:36,14751,1194,365,360,238,2.8,22,52,0,2.832
Label 1   ,216,03/10/04,15:57:36,15499,1318,418,415,272,7.4,22,53,0,2.832
Label 1   ,217,03/10/04,15:59:36,13763,1152,377,372,216,4.2,22,52,0,2.832
Label 1   ,218,03/10/04,16:01:36,14723,1284,408,401,246,1.8,22,52,0,2.832
Label 1   ,219,03/10/04,16:03:36,15015,1230,404,397,222,4.2,22,51,0,2.832
Label 1   ,220,03/10/04,16:05:36,14164,1235,406,373,216,3.9,21,51,0,2.832
Label 1   ,221,03/10/04,16:07:36,14322,1189,380,376,216,1.8,21,51,0,2.832
Label 1   ,222,03/10/04,16:09:36,14342,1205,388,387,232,3.5,21,51,0,2.832
Label 1   ,223,03/10/04,16:11:36,13981,1162,372,404,233,2.1,21,51,0,2.832
Label 1   ,224,03/10/04,16:13:37,14145,1192,365,362,189,2.8,21,51,0,2.832
Label 1   ,225,03/10/04,16:15:37,13874,1133,385,402,222,1.8,22,51,0,2.832
Label 1   ,226,03/10/04,16:17:37,15565,1309,412,383,213,1.8,21,52,0,2.832
Label 1   ,227,03/10/04,16:19:37,16016,1296,400,407,223,4.9,21,52,0,2.832
Label 1   ,228,03/10/04,16:21:37,23917,2185,601,478,263,4.6,20,52,0,2.832
Label 1   ,229,03/10/04,16:23:37,29705,2992,787,587,246,3.5,20,52,0,2.832
Label 1   ,230,03/10/04,16:25:37,22975,2206,631,475,215,1.4,20,52,0,2.832
Label 1   ,231,03/10/04,16:27:37,22500,2187,647,526,252,3.5,20,53,0,2.832
Label 1   ,232,03/10/04,16:29:37,21106,1775,543,449,261,1.8,20,54,0,2.832
Label 1   ,233,03/10/04,16:31:38,17237,1394,397,379,209,3.5,20,54,0,2.832
Label 1   ,234,03/10/04,16:33:38,20537,1735,502,445,246,2.8,19,55,0,2.832
Label 1   ,235,03/10/04,16:35:38,21650,1760,482,457,278,6.0,19,55,0,2.832
Label 1   ,236,03/10/04,16:37:38,19386,1543,448,371,208,1.1,20,54,0,2.832
Label 1   ,237,03/10/04,16:39:38,21440,1854,509,440,263,6.4,19,55,0,2.832
Label 1   ,238,03/10/04,16:41:38,22707,1978,525,422,232,3.2,19,55,0,2.832
Label 1   ,239,03/10/04,16:43:38,26380,2174,564,403,208,2.8,19,55,0,2.832
Label 1   ,240,03/10/04,16:45:38,18244,1402,402,370,171,3.9,19,56,0,2.832
Label 1   ,241,03/10/04,16:47:38,25382,2465,678,528,205,3.5,19,56,0,2.832
Label 1   ,242,03/10/04,16:49:39,18666,1423,397,362,187,0.7,19,56,0,2.832
Label 1   ,243,03/10/05,08:52:56,30019,1862,460,347,202,18,20,64,0,2.832
Label 1   ,244,03/10/05,08:54:56,33481,2037,481,365,179,13,20,63,0,2.832
Label 1   ,245,03/10/05,08:56:56,37062,2630,619,414,202,7.8,21,61,0,2.832
Label 1   ,246,03/10/05,08:58:56,38960,3140,762,498,204,5.7,22,58,0,2.832
Label 1   ,247,03/10/05,09:00:56,30325,2275,572,399,188,6.0,22,55,0,2.832
Label 1   ,248,03/10/05,09:02:57,35174,2852,761,602,455,138,22,54,0,2.832
Label 1   ,249,03/10/05,09:04:57,34360,2627,654,494,253,27,21,53,0,2.832
Label 1   ,250,03/10/05,09:06:57,31642,2445,610,456,200,4.9,23,51,0,2.832
Label 1   ,251,03/10/05,09:08:57,33952,2785,742,494,270,31,21,49,0,2.832
Label 1   ,252,03/10/05,09:10:57,39079,3428,845,614,219,2.8,22,47,0,2.832
Label 1   ,253,03/10/05,09:12:57,38366,3227,875,587,243,5.3,20,48,0,2.832
Label 1   ,254,03/10/05,09:14:57,36603,2965,808,546,212,2.8,21,48,0,2.832
Label 1   ,255,03/10/05,09:16:57,31755,2507,661,449,196,4.2,25,44,0,2.832
Label 1   ,256,03/10/05,09:18:57,29249,2193,593,421,202,2.1,24,43,0,2.832
Label 1   ,257,03/10/05,09:20:58,26199,1951,498,333,183,4.2,21,41,0,2.832
Label 1   ,258,03/10/05,09:22:58,27723,2105,546,397,197,2.5,22,41,0,2.832
Label 1   ,259,03/10/05,09:24:58,11809,810,246,283,298,22,25,37,0,2.832
Label 1   ,260,03/10/05,09:26:58,11412,678,173,156,102,1.4,23,36,0,2.832
Label 1   ,261,03/10/05,09:28:58,12570,791,215,162,100,1.4,24,36,0,2.832
Label 1   ,262,03/10/05,09:30:58,11786,724,196,180,98,3.2,23,36,0,2.832
Label 1   ,263,03/10/05,09:32:58,11912,851,220,189,114,3.9,24,34,0,2.832
Label 1   ,264,03/10/05,09:34:58,13323,1124,309,240,89,3.2,25,34,0,2.832
Label 1   ,265,03/10/05,09:36:59,9632,529,158,146,86,2.1,25,33,0,2.832
Label 1   ,266,03/10/05,09:38:59,9795,528,140,130,78,0.4,25,32,0,2.832
Label 1   ,267,03/10/05,09:40:59,9563,547,146,139,91,0.7,25,31,0,2.832
Label 1   ,268,03/10/05,09:42:59,9674,578,154,139,81,0.0,25,31,0,2.832
Label 1   ,269,03/10/05,09:44:59,10769,684,184,140,76,0.0,26,31,0,2.832
Label 1   ,270,03/10/05,09:46:59,9713,519,156,127,63,0.4,25,30,0,2.832
Label 1   ,271,03/10/05,09:48:59,10405,636,161,148,79,0.4,25,32,0,2.832
Label 1   ,272,03/10/05,09:50:59,10000,616,182,183,160,13,25,33,0,2.832
Label 1   ,273,03/10/05,09:52:59,9742,603,161,183,150,8.8,26,32,0,2.832
Label 1   ,274,03/10/05,09:55:00,10195,635,166,165,93,0.4,26,31,0,2.832
Label 1   ,275,03/10/05,09:57:00,10025,587,160,143,74,0.7,25,31,0,2.832
Label 1   ,276,03/10/05,09:59:00,8878,470,125,123,70,0.0,24,29,0,2.832
Label 1   ,277,03/10/05,10:01:00,9253,528,144,130,91,1.4,25,29,0,2.832
Label 1   ,278,03/10/05,10:03:00,8776,483,129,129,88,1.8,22,29,0,2.832
Label 1   ,279,03/10/05,10:05:00,9976,543,151,138,88,0.7,26,30,0,2.832
Label 1   ,280,03/10/05,10:07:00,9994,571,147,156,90,1.1,25,31,0,2.832
Label 1   ,281,03/10/05,10:09:00,9897,553,158,143,98,1.1,25,31,0,2.832
Label 1   ,282,03/10/05,10:11:00,8982,474,129,127,62,1.4,25,29,0,2.832
Label 1   ,283,03/10/05,10:13:01,9344,574,155,160,111,3.9,23,28,0,2.832
Label 1   ,284,03/10/05,10:15:01,9272,518,143,142,93,2.1,26,30,0,2.832
Label 1   ,285,03/10/05,10:17:01,8561,486,134,141,79,2.5,24,28,0,2.832
Label 1   ,286,03/10/05,10:19:01,8991,545,174,167,117,4.9,24,29,0,2.832
Label 1   ,287,03/10/05,10:21:01,8497,498,148,140,91,0.4,25,28,0,2.832
Label 1   ,288,03/10/05,10:23:01,9575,574,171,155,108,2.8,26,30,0,2.832
Label 1   ,289,03/10/05,10:25:01,9035,525,140,132,69,0.4,25,28,0,2.832
Label 1   ,290,03/10/05,10:27:01,9643,590,148,135,99,4.2,25,28,0,2.832
Label 1   ,291,03/10/05,10:29:02,9725,589,165,142,77,1.8,25,27,0,2.832
Label 1   ,292,03/10/05,10:31:02,8589,460,143,121,66,2.5,26,27,0,2.832
Label 1   ,293,03/10/05,10:33:02,8553,461,124,118,67,0.4,26,27,0,2.832
Label 1   ,294,03/10/05,10:35:02,8545,473,131,109,49,1.1,26,27,0,2.832
Label 1   ,295,03/10/05,10:37:02,8989,537,155,125,83,3.2,26,27,0,2.832
Label 1   ,296,03/10/05,10:39:02,9336,593,184,230,284,78,26,27,0,2.832
Label 1   ,297,03/10/05,10:41:02,8712,477,142,123,87,6.0,26,27,0,2.832
Label 1   ,298,03/10/05,10:43:02,9043,569,160,154,94,0.7,26,27,0,2.832
Label 1   ,299,03/10/05,10:45:02,8329,500,136,125,93,4.9,26,27,0,2.832
Label 1   ,300,03/10/05,10:47:03,7797,464,124,125,85,0.4,26,27,0,2.832
Label 1   ,301,03/10/05,10:49:03,7768,438,120,111,75,1.8,26,27,0,2.832
Label 1   ,302,03/10/05,10:51:03,8880,582,167,163,86,1.4,26,27,0,2.832
Label 1   ,303,03/10/05,10:53:03,7993,494,146,137,80,0.7,25,27,0,2.832
Label 1   ,304,03/10/05,10:55:03,9191,622,173,156,90,0.0,26,27,0,2.832
Label 1   ,305,03/10/05,10:57:03,8587,577,173,147,76,0.7,25,27,0,2.832
Label 1   ,306,03/10/05,10:59:03,8938,631,168,143,71,1.1,26,26,0,2.832
Label 1   ,307,03/10/05,11:01:03,8787,550,151,158,94,2.1,27,27,0,2.832
Label 1   ,308,03/10/05,11:03:04,10729,792,230,225,203,46,26,27,0,2.832
Label 1   ,309,03/10/05,11:05:04,10043,598,167,177,185,60,25,27,0,2.832
Label 1   ,310,03/10/05,11:07:04,8908,546,156,144,110,10,25,27,0,2.832
Label 1   ,311,03/10/05,11:09:04,7678,520,159,170,173,54,26,24,0,2.832
Label 1   ,312,03/10/05,11:11:04,8747,686,196,162,70,1.4,27,25,0,2.832
Label 1   ,313,03/10/05,11:13:04,7474,455,109,118,112,21,26,23,0,2.832
Label 1   ,314,03/10/05,11:15:04,7945,522,154,143,98,5.3,26,25,0,2.832
Label 1   ,315,03/10/05,11:17:04,7149,421,115,107,72,3.2,26,23,0,2.832
Label 1   ,316,03/10/05,11:19:05,8891,522,157,139,126,13,26,27,0,2.832
Label 1   ,317,03/10/05,11:21:05,9042,556,162,148,150,34,27,24,0,2.832
Label 1   ,318,03/10/05,11:23:05,8801,603,182,153,93,2.1,27,25,0,2.832
Label 1   ,319,03/10/05,11:25:05,9167,577,158,123,102,8.1,27,27,0,2.832
Label 1   ,320,03/10/05,11:27:05,7161,410,124,101,67,0.7,27,22,0,2.832
Label 1   ,321,03/10/05,11:29:05,9396,583,153,122,76,1.1,26,25,0,2.832
Label 1   ,322,03/10/05,11:31:05,14233,827,185,135,71,1.8,25,23,0,2.832